Flag for Italy Weather past 2 weeks in Venice, Italy

Now
82 °F

Sunny.


Feels Like: 83 °F
Forecast: 69 / 88 °F
Wind: 8 mph from Southeast

Location: Venice / Tessera

Current Time: Jul 2, 2015 at 7:04:30 PM

Latest Report: Jul 2, 2015 at 6:20 PM


Visibility: 10 mi

Pressure: 30.15 "Hg

Humidity: 51%

Dew point: 63 °F

Location of VeniceLocation

Historic Weather in Venice — Graph

°F

Venice temperature yesterday

Maximum temperature yesterday: 82 °F (at 12:20 PM)
Minimum temperature yesterday: 68 °F (at 5:50 AM)
Average temperature yesterday: 77 °F

Past Weeks' High & Low Weather Summary

 TemperatureHumidityPressure
High84 °F (Jul 2, 1:50 PM)94% (Jun 23, 7:50 PM)30.21 "Hg (Jun 23, 7:50 PM)
Low57 °F (Jun 24, 3:50 AM)41% (Jun 17, 5:50 PM)29.71 "Hg (Jun 23, 8:20 AM)
Average71 °F65%30.02 "Hg
* Reported Jun 17 5:20 PM — Jul 2 5:50 PM, Venice, Weather by CustomWeather, © 2015

Note: Actual official high and low records may vary slightly from our data, if they occured in-between our weather recording intervals... More about our weather records

Advertising

Venice weather history for previous 24 hours

 ConditionsComfort  
Time TempWeatherWind HumidityBarometerVisibility
5:50 PM
Thu, Jul 2
82 °FPassing clouds.9 mph55%30.15 "HgN/A
5:20 PM82 °FSunny.10 mph55%30.15 "Hg10 mi
4:50 PM84 °FSunny.12 mph51%30.15 "Hg10 mi
4:20 PM84 °FSunny.13 mph48%30.15 "Hg10 mi
3:50 PM84 °FSunny.10 mph48%30.15 "Hg10 mi
3:20 PM82 °FSunny.10 mph55%30.15 "Hg10 mi
2:50 PM84 °FPassing clouds.10 mph43%30.15 "HgN/A
2:20 PM84 °FSunny.10 mph43%30.15 "Hg10 mi
1:50 PM84 °FSunny.10 mph45%30.15 "Hg10 mi
1:20 PM82 °FSunny.10 mph55%30.15 "Hg10 mi
12:50 PM82 °FPassing clouds.10 mph62%30.15 "HgN/A
12:20 PM82 °FSunny.9 mph58%30.15 "Hg10 mi
11:50 AM81 °FPassing clouds.7 mph58%30.15 "HgN/A
11:20 AM82 °FPassing clouds.5 mph55%30.15 "HgN/A
10:50 AM82 °FPassing clouds.5 mph45%30.15 "HgN/A
10:20 AM81 °FPassing clouds.5 mph54%30.15 "HgN/A
9:50 AM81 °FPassing clouds.5 mph58%30.18 "HgN/A
9:20 AM79 °FSunny.2 mph61%30.18 "Hg10 mi
8:50 AM77 °FPassing clouds.5 mph61%30.18 "HgN/A
8:20 AM75 °FPassing clouds.5 mph65%30.15 "HgN/A
7:50 AM73 °FPassing clouds.6 mph69%30.15 "HgN/A
7:20 AM73 °FSunny.7 mph65%30.15 "Hg10 mi
6:50 AM72 °FSunny.5 mph73%30.15 "Hg10 mi
6:20 AM70 °FClear.6 mph78%30.15 "Hg10 mi
5:50 AM70 °FClear.3 mph78%30.15 "Hg10 mi
5:20 AM70 °FClear.5 mph83%30.15 "Hg10 mi
4:50 AM70 °FClear.6 mph83%30.15 "Hg10 mi
4:20 AM72 °FClear.2 mph83%30.15 "Hg10 mi
3:50 AM70 °FClear.5 mph88%30.15 "Hg10 mi
3:20 AM70 °FClear.2 mph88%30.15 "Hg10 mi
1:50 AM72 °FPassing clouds.3 mph83%30.15 "HgN/A
1:20 AM72 °FPassing clouds.3 mph83%30.15 "HgN/A
12:50 AM73 °FPassing clouds.3 mph83%30.15 "HgN/A
12:20 AM73 °FClear.1 mph83%30.15 "Hg10 mi
11:50 PM
Wed, Jul 1
77 °FClear.2 mph69%30.15 "Hg10 mi
10:50 PM77 °FClear.5 mph65%30.15 "Hg10 mi
10:20 PM77 °FClear.7 mph69%30.12 "Hg10 mi
9:50 PM77 °FSunny.6 mph69%30.12 "Hg10 mi
9:20 PM77 °FSunny.6 mph65%30.12 "Hg10 mi
8:50 PM79 °FSunny.8 mph61%30.12 "Hg10 mi
8:20 PM79 °FSunny.8 mph61%30.12 "Hg10 mi
7:50 PM81 °FPassing clouds.7 mph51%30.12 "HgN/A
7:20 PM81 °FPassing clouds.7 mph51%30.12 "HgN/A
Weather by CustomWeather, © 2015

See weather overviewHow to use our weather pages